Location: ??????
(41.3164°N, 22.6615°E)
Time: 02:56:06
(UTC+00:00)

CAS-4A - Pass Details

Date: 11 July 2022
Orbit: 521 x 537 km, 43.0° (Epoch: 10 August)

Event Time Altitude Azimuth Distance (km) Brightness Sun altitude
Rises 20:21:00 0° 246° (WSW) 2,639 ? -19.5°
Reaches altitude 10° 20:23:14 10° 244° (WSW) 1,751 ? -19.7°
Maximum altitude 20:27:13 70° 160° (SSE) 554 ? -20.1°
Enters shadow 20:27:53 56° 103° (ESE) 622 ? -20.1°
